Change the Weather History Date:

Thursday, November 1, 2012

  Actual Average Record
Temperature  
Mean Temperature 60 °F -  
Max Temperature 73 °F 60 °F 78 °F (2003)
Min Temperature 48 °F 44 °F 39 °F (1996)
Degree Days  
Heating Degree Days 4    
Growing Degree Days 10 (Base 50)    
Moisture  
Dew Point 48 °F    
Average Humidity 63    
Maximum Humidity 94    
Minimum Humidity 43    
Precipitation  
Precipitation 0.00 in 0.09 in - ()
Sea Level Pressure  
Sea Level Pressure 29.41 in    
Wind  
Wind Speed 8 mph ()    
Max Wind Speed 20 mph    
Max Gust Speed 33 mph    
Visibility 5.6 miles    
Events      
Averages and records for this station are not official NWS values.
T = Trace of Precipitation, MM = Missing Value Source: Averaged Metar Reports

Daily Weather History Graph

Daily Weather History Graph

Search for Another Location

Airport or City:

Trip Planner

Search our weather history database for the weather conditions in past years. The results will help you decide how hot, cold, wet, or windy it might be!

Date:

Astronomy

Nov. 01, 2012 Rise Set
Actual Time 6:36 AM CET 4:56 PM CET
Civil Twilight 6:07 AM CET 5:25 PM CET
Nautical Twilight 5:34 AM CET 5:58 PM CET
Astronomical Twilight 5:01 AM CET 6:31 PM CET
Moon 6:36 PM CET (11/1) 8:57 AM CET (11/1)
Length of Visible Light 11h 17m
Length of Day
10h 19m
Waning Gibbous, 94% of the Moon is Illuminated
Nov 1
Waning Gibbous
Nov 7
Last Quarter
Nov 13
New
Nov 20
First Quarter
Nov 28
Full

Hourly Weather History & Observations

Time (CET) Temp. Dew Point Humidity Pressure Visibility Wind Dir Wind Speed Gust Speed Precip Events Conditions
12:50 AM 50.0 °F 46.4 °F 87% 29.30 in 2.5 mi Variable 1.2 mph - N/A   Partly Cloudy
1:50 AM 48.2 °F 44.6 °F 87% 29.30 in 2.5 mi Variable 3.5 mph - N/A   Partly Cloudy
2:50 AM 48.2 °F 44.6 °F 87% 29.24 in 2.5 mi Variable 3.5 mph - N/A   Partly Cloudy
3:50 AM 50.0 °F 48.2 °F 94% 29.24 in 6.2 mi Variable 2.3 mph - N/A   Scattered Clouds
4:50 AM 53.6 °F 51.8 °F 94% 29.21 in 6.2 mi West 6.9 mph - N/A   Scattered Clouds
5:50 AM 53.6 °F 51.8 °F 94% 29.24 in 6.2 mi West 5.8 mph - N/A   Mostly Cloudy
6:50 AM 55.4 °F 51.8 °F 88% 29.24 in 6.2 mi SSW 5.8 mph - N/A   Mostly Cloudy
7:00 AM 64.4 °F 53.6 °F 68% 29.24 in 6.2 mi SSW 17.3 mph - N/A   Mostly Cloudy
7:50 AM 64.4 °F 53.6 °F 68% 29.27 in 6.2 mi SSW 16.1 mph - N/A   Scattered Clouds
8:50 AM 69.8 °F 53.6 °F 56% 29.30 in 6.2 mi SW 15.0 mph - N/A   Scattered Clouds
9:50 AM 68.0 °F 51.8 °F 56% 29.39 in 6.2 mi Variable 3.5 mph - N/A   Mostly Cloudy
10:50 AM 73.4 °F 53.6 °F 50% 29.42 in 6.2 mi SSW 10.4 mph - N/A   Partly Cloudy
11:50 AM 69.8 °F 48.2 °F 46% 29.42 in 6.2 mi SSW 15.0 mph 26.5 mph N/A   Partly Cloudy
12:50 PM 69.8 °F 48.2 °F 46% 29.44 in 6.2 mi SSW 19.6 mph 33.4 mph N/A   Partly Cloudy
1:50 PM 71.6 °F 50.0 °F 46% 29.47 in 6.2 mi SW 16.1 mph 28.8 mph N/A   Partly Cloudy
2:50 PM 69.8 °F 48.2 °F 46% 29.47 in 6.2 mi SSW 16.1 mph - N/A   Partly Cloudy
3:50 PM 68.0 °F 46.4 °F 46% 29.50 in 6.2 mi SW 10.4 mph - N/A   Partly Cloudy
4:50 PM 68.0 °F 44.6 °F 43% 29.50 in 6.2 mi SSW 17.3 mph - N/A   Scattered Clouds
5:50 PM 66.2 °F 44.6 °F 46% 29.53 in 6.2 mi SSW 12.7 mph - N/A   Partly Cloudy
6:50 PM 62.6 °F 42.8 °F 48% 29.56 in - SW 9.2 mph - N/A   Clear
7:50 PM 60.8 °F 44.6 °F 55% 29.59 in - SSW 12.7 mph - N/A   Clear
8:50 PM 62.6 °F 46.4 °F 55% 29.59 in - SSW 10.4 mph - N/A   Clear
9:50 PM 64.4 °F 48.2 °F 56% 29.59 in 6.2 mi SSW 16.1 mph - N/A   Partly Cloudy
10:50 PM 64.4 °F 48.2 °F 56% 29.59 in - SW 12.7 mph 24.2 mph N/A   Clear
11:50 PM 64.4 °F 46.4 °F 52% 29.62 in - SSW 13.8 mph - N/A   Clear